Location: Davayat
(45.9471°N, 3.1105°E)
Time: 18:14:53
(UTC+00:00)

BREEZE-M DEB (TANK) - Pass Details

Date: 01 December 2020
Orbit: 320 x 13925 km, 49.6° (Epoch: 17 January)

Event Time Altitude Azimuth Distance (km) Brightness Sun altitude
Rises 18:03:43 0° 234° (SW) 6,920 9.5 -20.1°
Reaches altitude 10° 18:10:06 10° 233° (SW) 4,245 8.2 -21.2°
Maximum altitude 18:18:21 60° 156° (SSE) 801 3.4 -22.6°
Enters shadow 18:18:43 57° 129° (SE) 780 3.2 -22.7°
